AirNav   Air Wisconsin pilot careers
 
 410 users online  

2NY9 Kayutah Lake Airport
Alpine, New York, USA

GOING TO ALPINE?


FAA INFORMATION EFFECTIVE 01 FEBRUARY 2018

Location

FAA Identifier: 2NY9
Lat/Long: 42-22-12.2640N / 076-43-20.8230W
42-22.204400N / 076-43.347050W
42.3700733 / -76.7224508
(estimated)
Elevation: 1385 ft. / 422 m (estimated)
Variation: 11W (1985)
From city: 3 miles N of ALPINE, NY
Time zone: UTC -5 (UTC -4 during Daylight Saving Time)
Zip code: 14805

Airport Operations

Airport use: Private use. Permission required prior to landing
Activation date: 05/1974
Control tower: no
ARTCC: NEW YORK CENTER
FSS: BUFFALO FLIGHT SERVICE STATION
Attendance: MAY-OCT 0800-2000
Wind indicator: yes
Segmented circle: no

Airport Communications

WX AWOS-3PT at ITH (14 nm NE): 125.175 (607-257-2390)
WX ASOS at ELM (15 nm SW): PHONE 607-796-0065

Nearby radio navigation aids

VOR radial/distance  VOR name  Freq  Var
ITHr247/13.8ITHACA VOR/DME111.8010W
ULWr051/21.3ELMIRA VOR/DME109.6512W
CFBr306/29.0BINGHAMTON VOR/DME112.2010W

 
NDB name  Hdg/Dist  Freq  Var  ID
ALPINE025/8.124512WALP .- .-.. .--.
PENN YAN150/22.126012WPYA .--. -.-- .-

Airport Services

Airframe service: NONE
Powerplant service: NONE

Runway Information

Runway 8/26

Dimensions: 2400 x 70 ft. / 732 x 21 m
08/26 300' OVERRUN ON EAST END.
Surface: turf
RUNWAY 8  RUNWAY 26
Traffic pattern: leftright
Obstructions: nonetrees, 750 ft. from runway

Runway 4W/22W

Dimensions: 5000 x 150 ft. / 1524 x 46 m
Surface: water
RUNWAY 4W  RUNWAY 22W
Traffic pattern: leftleft

Airport Ownership and Management from official FAA records

Ownership: Privately-owned
Owner: JAMES W. ALLEN
2512 LORI LANE NORTH
WILIMGTON, DE 19810
Phone (302) 478-0310
Manager: LAKE GROVE PARK LLC
2619 COUNTY RT. 6
ALPINE, NY 14805
Phone 607-594-4790

Airport Operational Statistics

Aircraft based on the field: 1
Single engine airplanes: 1
    

Instrument Procedures

There are no published instrument procedures at 2NY9.

Some nearby airports with instrument procedures:

KITH - Ithaca Tompkins Regional Airport (14 nm NE)
KELM - Elmira/Corning Regional Airport (15 nm SW)
KPEO - Penn Yan Airport (22 nm NW)
N03 - Cortland County Airport-Chase Field (26 nm NE)
0G7 - Finger Lakes Regional Airport (31 nm N)
 
Loc | Ops | Rwys | IFR | FBO | Links
Com | Nav | Svcs | Stats | Notes

AirNav Hotels Sweepstakes
 
Area around 2NY9 (Kayutah Lake Airport)
 
Road maps at: MapQuest Bing Google
 
Aerial photo
No photo
 
Sectional chart

 
Airport distance calculator
Flying to Kayutah Lake Airport? Find the distance to fly.

From to 2NY9

Sunrise and sunset
Times for 22-Feb-2018
 Local
(UTC-5)
 Zulu
(UTC)
Morning civil twilight06:2611:26
Sunrise06:5411:54
Sunset17:4722:47
Evening civil twilight18:1523:15

Current date and time
Zulu (UTC)  22-Feb-2018 10:52:32
Local (UTC-5)  22-Feb-2018 05:52:32
 
METAR
KITH 
13nm NE 
221016Z AUTO 31004KT 10SM BKN012 OVC023 M01/M03 A3059 RMK AO2
KELM 
15nm SW 
220953Z AUTO 05007KT 10SM OVC075 01/M03 A3058 RMK AO2 SLP362 T00111033
KPEO 
22nm NW 
221040Z AUTO 33005KT 10SM FEW013 OVC090 00/M04 A3060 RMK AO2 T00001039
KN03 
26nm NE 
221035Z AUTO 02003KT 10SM BKN013 OVC080 00/M01 A3058 RMK AO2
TAF
KITH 
13nm NE 
220917Z 2209/2306 35006KT P6SM SCT025 OVC060 FM221200 35006KT P6SM OVC025 FM221400 03005KT 2SM -SN OVC015 FM222300 06004KT P6SM OVC015
KELM 
15nm SW 
220917Z 2209/2306 04005KT P6SM OVC070 FM221200 03004KT P6SM BKN025 OVC050 FM221300 02004KT 2SM -SNPL OVC015 FM221700 05004KT 2SM -SN OVC012 FM222200 06004KT P6SM OVC015
NOTAMs
Click for the latest NOTAMs
NOTAMs are issued by the DoD/FAA and will open in a separate window not controlled by AirNav.

 

 
 

Would you like to see your business listed on this page?

 If your business provides an interesting product or service to pilots, flight crews, aircraft, or users of the Kayutah Lake Airport, you should consider listing it here.  To start the listing process, click on the button below
 
Add a business
 

Other Pages about Kayutah Lake Airport

Update a link
 
Copyright © AirNav, LLC. All rights reserved. Privacy Policy  Contact